Hourly Weather Bolshie Selischi

Today, 5 August, Thursday

Time Temperature Precipitation Wind Pressure Humidity
00:00 +13°C° 0 mm 0 mps 750 mmHg 87%
01:00 +13°C° 0 mm 0 mps 750 mmHg 88%
02:00 +13°C° 0 mm 0 mps 750 mmHg 88%
03:00 +13°C° 0 mm 0 mps 750 mmHg 88%
04:00 +14°C° 0 mm 1 mps 750 mmHg 88%
05:00 +14°C° 0 mm 1 mps 750 mmHg 88%
06:00 +16°C° 0 mm 1 mps 750 mmHg 82%
07:00 +18°C° 0 mm 1 mps 750 mmHg 75%
08:00 +19°C° 0 mm 2 mps 750 mmHg 69%
09:00 +19°C° 0.1 mm 2 mps 750 mmHg 67%
10:00 +20°C° 0.1 mm 2 mps 749 mmHg 65%
11:00 +20°C° 0.1 mm 2 mps 749 mmHg 62%
12:00 +19°C° 0.7 mm 2 mps 749 mmHg 72%
13:00 +18°C° 0.7 mm 2 mps 749 mmHg 81%
14:00 +16°C° 0.7 mm 1 mps 749 mmHg 91%
15:00 +16°C° 0.6 mm 1 mps 749 mmHg 92%
16:00 +16°C° 0.6 mm 2 mps 748 mmHg 94%
17:00 +15°C° 0.6 mm 2 mps 748 mmHg 96%
18:00 +15°C° 0.1 mm 2 mps 748 mmHg 96%
19:00 +15°C° 0.1 mm 2 mps 748 mmHg 97%
20:00 +15°C° 0.1 mm 2 mps 747 mmHg 97%
21:00 +15°C° 0 mm 2 mps 747 mmHg 97%
22:00 +15°C° 0 mm 1 mps 747 mmHg 97%
23:00 +15°C° 0 mm 1 mps 747 mmHg 97%

Tomorrow, 6 August, Friday

Time Temperature Precipitation Wind Pressure Humidity
00:00 +14°C° 0 mm 1 mps 747 mmHg 97%
01:00 +14°C° 0 mm 1 mps 746 mmHg 97%
02:00 +13°C° 0 mm 1 mps 746 mmHg 97%
03:00 +13°C° 0 mm 1 mps 746 mmHg 97%
04:00 +14°C° 0 mm 1 mps 746 mmHg 97%
05:00 +14°C° 0 mm 1 mps 746 mmHg 97%
06:00 +15°C° 0 mm 1 mps 746 mmHg 93%
07:00 +18°C° 0 mm 1 mps 746 mmHg 88%
08:00 +19°C° 0 mm 1 mps 746 mmHg 84%
09:00 +20°C° 0 mm 1 mps 746 mmHg 78%
10:00 +22°C° 0 mm 1 mps 746 mmHg 72%
11:00 +23°C° 0 mm 1 mps 746 mmHg 66%
12:00 +22°C° 0.6 mm 1 mps 746 mmHg 73%
13:00 +21°C° 0.6 mm 1 mps 746 mmHg 80%
14:00 +20°C° 0.6 mm 2 mps 745 mmHg 87%
15:00 +19°C° 1.2 mm 2 mps 745 mmHg 91%
16:00 +18°C° 1.2 mm 2 mps 745 mmHg 94%
17:00 +18°C° 1.2 mm 2 mps 745 mmHg 98%
18:00 +18°C° 0.5 mm 2 mps 745 mmHg 98%
19:00 +17°C° 0.5 mm 2 mps 745 mmHg 98%
20:00 +17°C° 0.5 mm 2 mps 745 mmHg 98%
21:00 +17°C° 0.8 mm 2 mps 745 mmHg 98%
22:00 +17°C° 0.8 mm 3 mps 745 mmHg 98%
23:00 +17°C° 0.8 mm 3 mps 745 mmHg 97%

Day after tomorrow, 7 August, Saturday

Time Temperature Precipitation Wind Pressure Humidity
00:00 +17°C° 0.5 mm 3 mps 744 mmHg 97%
01:00 +17°C° 0.5 mm 2 mps 744 mmHg 96%
02:00 +17°C° 0.5 mm 2 mps 744 mmHg 96%
03:00 +17°C° 0 mm 3 mps 744 mmHg 96%
04:00 +16°C° 0 mm 3 mps 743 mmHg 97%
05:00 +15°C° 0 mm 4 mps 743 mmHg 97%
06:00 +17°C° 0 mm 3 mps 743 mmHg 94%
07:00 +18°C° 0 mm 3 mps 743 mmHg 90%
08:00 +19°C° 0 mm 3 mps 743 mmHg 87%
09:00 +21°C° 0 mm 3 mps 743 mmHg 79%
10:00 +24°C° 0 mm 3 mps 743 mmHg 71%
11:00 +26°C° 0 mm 2 mps 743 mmHg 63%
12:00 +27°C° 0 mm 3 mps 743 mmHg 61%
13:00 +28°C° 0 mm 3 mps 743 mmHg 59%
14:00 +28°C° 0 mm 3 mps 743 mmHg 57%
15:00 +27°C° 1.3 mm 2 mps 743 mmHg 68%
16:00 +25°C° 1.3 mm 2 mps 743 mmHg 78%
17:00 +23°C° 1.3 mm 2 mps 742 mmHg 89%
18:00 +21°C° 1.7 mm 2 mps 743 mmHg 91%
19:00 +20°C° 1.7 mm 2 mps 743 mmHg 94%
20:00 +19°C° 1.7 mm 2 mps 743 mmHg 96%
21:00 +19°C° 0.3 mm 3 mps 744 mmHg 95%
22:00 +19°C° 0.3 mm 3 mps 744 mmHg 95%
23:00 +18°C° 0.3 mm 3 mps 744 mmHg 95%

8 August, Sunday

Time Temperature Precipitation Wind Pressure Humidity
00:00 +17°C° 0 mm 3 mps 745 mmHg 95%
01:00 +14°C° 0 mm 3 mps 745 mmHg 96%
02:00 +13°C° 0 mm 3 mps 745 mmHg 96%
03:00 +13°C° 0 mm 3 mps 745 mmHg 96%
04:00 +12°C° 0 mm 3 mps 746 mmHg 96%
05:00 +13°C° 0 mm 2 mps 746 mmHg 97%
06:00 +14°C° 0 mm 3 mps 746 mmHg 92%
07:00 +16°C° 0 mm 3 mps 746 mmHg 87%
08:00 +18°C° 0 mm 4 mps 746 mmHg 82%
09:00 +19°C° 0.1 mm 4 mps 747 mmHg 79%
10:00 +20°C° 0.1 mm 4 mps 747 mmHg 76%
11:00 +21°C° 0.1 mm 4 mps 747 mmHg 72%
12:00 +21°C° 0.2 mm 4 mps 747 mmHg 72%
13:00 +21°C° 0.2 mm 4 mps 748 mmHg 71%
14:00 +22°C° 0.2 mm 4 mps 748 mmHg 70%
15:00 +22°C° 0 mm 3 mps 748 mmHg 67%
16:00 +24°C° 0 mm 3 mps 748 mmHg 65%
17:00 +24°C° 0 mm 3 mps 748 mmHg 63%
18:00 +21°C° 0 mm 2 mps 749 mmHg 70%
19:00 +19°C° 0 mm 2 mps 749 mmHg 78%
20:00 +18°C° 0 mm 1 mps 749 mmHg 86%
21:00 +18°C° 0 mm 1 mps 749 mmHg 86%
22:00 +16°C° 0 mm 1 mps 750 mmHg 87%
23:00 +16°C° 0 mm 1 mps 750 mmHg 87%

9 August, Monday

Time Temperature Precipitation Wind Pressure Humidity
00:00 +16°C° 0 mm 1 mps 750 mmHg 88%
01:00 +16°C° 0 mm 1 mps 750 mmHg 89%
02:00 +15°C° 0 mm 1 mps 750 mmHg 89%
03:00 +16°C° 0 mm 1 mps 750 mmHg 89%
04:00 +16°C° 0 mm 1 mps 750 mmHg 88%
05:00 +16°C° 0 mm 1 mps 750 mmHg 88%
06:00 +19°C° 0 mm 1 mps 750 mmHg 80%
07:00 +21°C° 0 mm 1 mps 751 mmHg 72%
08:00 +23°C° 0 mm 1 mps 751 mmHg 65%
09:00 +25°C° 0 mm 2 mps 751 mmHg 60%
10:00 +26°C° 0 mm 2 mps 751 mmHg 56%
11:00 +27°C° 0 mm 2 mps 751 mmHg 52%
12:00 +28°C° 0 mm 2 mps 751 mmHg 50%
13:00 +29°C° 0 mm 2 mps 751 mmHg 48%
14:00 +29°C° 0 mm 2 mps 751 mmHg 46%
15:00 +29°C° 0 mm 2 mps 750 mmHg 49%
16:00 +29°C° 0 mm 1 mps 750 mmHg 52%
17:00 +28°C° 0 mm 1 mps 750 mmHg 55%
18:00 +26°C° 0 mm 1 mps 750 mmHg 62%
19:00 +24°C° 0 mm 1 mps 750 mmHg 68%
20:00 +22°C° 0 mm 1 mps 750 mmHg 75%
21:00 +22°C° 0 mm 1 mps 750 mmHg 76%
22:00 +21°C° 0 mm 1 mps 750 mmHg 77%
23:00 +20°C° 0 mm 2 mps 750 mmHg 79%

10 August, Tuesday

Time Temperature Precipitation Wind Pressure Humidity
00:00 +19°C° 0 mm 2 mps 750 mmHg 80%
01:00 +19°C° 0 mm 2 mps 750 mmHg 81%
02:00 +19°C° 0 mm 2 mps 750 mmHg 82%
03:00 +19°C° 0 mm 2 mps 750 mmHg 82%
04:00 +19°C° 0 mm 2 mps 750 mmHg 82%
05:00 +19°C° 0 mm 2 mps 750 mmHg 82%
06:00 +20°C° 0 mm 2 mps 750 mmHg 76%
07:00 +23°C° 0 mm 2 mps 751 mmHg 70%
08:00 +25°C° 0 mm 2 mps 751 mmHg 63%
09:00 +26°C° 0 mm 2 mps 751 mmHg 58%
10:00 +28°C° 0 mm 2 mps 750 mmHg 54%
11:00 +29°C° 0 mm 2 mps 750 mmHg 49%
12:00 +30°C° 0 mm 2 mps 750 mmHg 46%
13:00 +30°C° 0 mm 2 mps 750 mmHg 44%
14:00 +31°C° 0 mm 2 mps 750 mmHg 42%
15:00 +30°C° 0 mm 2 mps 750 mmHg 45%
16:00 +30°C° 0 mm 2 mps 750 mmHg 48%
17:00 +29°C° 0 mm 1 mps 749 mmHg 51%
18:00 +27°C° 0 mm 1 mps 749 mmHg 57%
19:00 +26°C° 0 mm 1 mps 749 mmHg 63%
20:00 +24°C° 0 mm 1 mps 749 mmHg 69%
21:00 +23°C° 0 mm 1 mps 749 mmHg 71%
22:00 +21°C° 0 mm 2 mps 749 mmHg 74%
23:00 +20°C° 0 mm 2 mps 749 mmHg 76%
Show more

We Need Your Consent

Meteoprog and our Service Providers may store and access personal data such as cookies, device identifiers or other similar technologies on your device and process such data to personalise content and ads, as well as provide social media features and to analyse the traffic.

  • Store and/or access information on your device

    Cookies, device identifiers or other information can be stored or accessed on your device for the purposes indicated above.

  • Personalised ads and content, ad and content measurement, audience insights, and products development

    Ads and content can be personalised based on a profile. More data can be added to better personalise ads and content. Ad and content performance can be measured. Insights about the audience who saw the ads and content can be derived. Such data can be used to develop or improve user’s experience, systems and software.

By clicking ‘I Agree’ you will allow the use of indicated cookies, device identifiers, web beacons or other similar technologies. Your settings can be changed in the browser on your device.

For certain purposes, legitimate interests may be relied on, rather than consent. You can read more about this in our Privacy and Cookie Policy.